Weather in Werkendam

Netherlands     51°48′28″N   4°53′55″E
temp.,
°C
wind,
m/s
gust,
m/s
humid.,
%
clouds,
%
prec.,
mm/h
press.,
hPa
HPBL,
m
13 june, sun
sun1323:00+10nw36775 0.0 102690
02:00+9nw22915 0.0 102717
05:00+8nnw11905 0.0 102710
08:00+13nne22760 0.0 1028223
11:00+17n12581 0.0 1029803
14:00+21n12525 0.0 10281197
17:00+22nne01500 0.0 10261204
20:00+21ese11620 0.0 1025165
14 june, mon
mon1423:00+15n22770 0.0 102517
02:00+13se22785 0.0 102412
05:00+12sse22765 0.0 102319
08:00+16s23695 0.0 1023149
11:00+21sw33540 0.0 1022636
14:00+24w34450 0.0 10211250
17:00+25w344538 0.0 10201270
20:00+22wnw3666100 0.0 1019201
15 june, tue
tue1523:00+15n3685100 0.0 1020108
02:00+14nne2496100 0.0 102179
05:00+16ne2588100 0.0 1021241
08:00+15nne3693100 0.4 1022281
11:00+15ene358899 0.5 1022300
14:00+18e2369100 0.5 1021585
17:00+21ese226290 0.0 1020827
20:00+20se2373100 0.0 1019183
16 june, wed
wed1623:00+15e2283100 0.0 101912
02:00+14e2287100 0.0 101823
05:00+13e3389100 0.0 101739
08:00+17e2379100 0.0 1016166
11:00+22e2267100 0.0 1016605
14:00+25se1257100 0.0 10151255
17:00+26nnw1251100 0.0 10141490
20:00+25n346771 0.0 1013100
17 june, thu
thu1723:00+19ne347615 0.0 101351
02:00+18ene34915 0.0 101252
05:00+18e359234 0.0 101068
08:00+22se487767 0.0 1010226
11:00+27se575699 0.0 1009647
14:00+31ssw685011 0.0 10082011
17:00+28wsw686352 0.1 1009988
20:00+25wnw46735 0.1 1009370